Time,TemperatureF,DewpointF,PressureIn,WindDirection,WindDirectionDegrees,WindSpeedMPH,WindSpeedGustMPH,Humidity,HourlyPrecipIn,Conditions,Clouds,dailyrainin,SoftwareType,DateUTC
2013-03-18 00:14:00,23.1,13.0,29.73,West,259,1.0,2.0,64,0.00,,,0.00,weatherlink.com 1.10,2013-03-18 06:14:00,
2013-03-18 00:30:00,22.5,12.0,29.73,WSW,238,1.0,3.0,64,0.00,,,0.00,weatherlink.com 1.10,2013-03-18 06:30:00,
2013-03-18 00:45:00,21.6,11.0,29.74,West,271,1.0,5.0,64,0.00,,,0.00,weatherlink.com 1.10,2013-03-18 06:45:00,
2013-03-18 01:00:00,21.4,11.0,29.74,WSW,257,0.0,5.0,64,0.00,,,0.00,weatherlink.com 1.10,2013-03-18 07:00:00,
2013-03-18 01:15:00,20.6,10.0,29.75,WSW,248,0.0,3.0,65,0.00,,,0.00,weatherlink.com 1.10,2013-03-18 07:15:00,
2013-03-18 01:30:00,20.2,10.0,29.75,WSW,248,1.0,2.0,66,0.00,,,0.00,weatherlink.com 1.10,2013-03-18 07:30:00,
2013-03-18 01:45:00,20.1,10.0,29.76,WSW,248,0.0,2.0,65,0.00,,,0.00,weatherlink.com 1.10,2013-03-18 07:45:00,
2013-03-18 02:01:00,19.7,10.0,29.76,WSW,248,0.0,0.0,66,0.00,,,0.00,weatherlink.com 1.10,2013-03-18 08:01:00,
2013-03-18 02:17:00,19.2,10.0,29.77,WSW,248,0.0,0.0,67,0.00,,,0.00,weatherlink.com 1.10,2013-03-18 08:17:00,
2013-03-18 02:31:00,19.0,9.0,29.77,WSW,248,0.0,0.0,66,0.00,,,0.00,weatherlink.com 1.10,2013-03-18 08:31:00,
2013-03-18 02:46:00,18.7,9.0,29.78,WSW,248,0.0,1.0,66,0.00,,,0.00,weatherlink.com 1.10,2013-03-18 08:46:00,
2013-03-18 03:01:00,18.4,9.0,29.78,WSW,248,0.0,1.0,66,0.00,,,0.00,weatherlink.com 1.10,2013-03-18 09:01:00,
2013-03-18 03:15:00,18.2,9.0,29.77,WSW,248,1.0,1.0,67,0.00,,,0.00,weatherlink.com 1.10,2013-03-18 09:15:00,
2013-03-18 03:30:00,17.8,8.0,29.78,WSW,248,0.0,2.0,66,0.00,,,0.00,weatherlink.com 1.10,2013-03-18 09:30:00,
2013-03-18 03:45:00,17.7,8.0,29.78,WSW,248,0.0,1.0,65,0.00,,,0.00,weatherlink.com 1.10,2013-03-18 09:45:00,
2013-03-18 04:00:00,17.8,8.0,29.78,WSW,248,0.0,2.0,65,0.00,,,0.00,weatherlink.com 1.10,2013-03-18 10:00:00,
2013-03-18 04:16:00,18.5,8.0,29.78,SSW,202,0.0,2.0,63,0.00,,,0.00,weatherlink.com 1.10,2013-03-18 10:16:00,
2013-03-18 04:31:00,19.4,7.0,29.77,SW,231,1.0,1.0,60,0.00,,,0.00,weatherlink.com 1.10,2013-03-18 10:31:00,
2013-03-18 04:46:00,19.7,7.0,29.78,West,261,0.0,3.0,58,0.00,,,0.00,weatherlink.com 1.10,2013-03-18 10:46:00,
2013-03-18 05:01:00,19.7,7.0,29.78,WSW,242,0.0,2.0,57,0.00,,,0.00,weatherlink.com 1.10,2013-03-18 11:01:00,
2013-03-18 05:15:00,19.8,6.0,29.78,West,259,0.0,3.0,56,0.00,,,0.00,weatherlink.com 1.10,2013-03-18 11:15:00,
2013-03-18 05:30:00,20.3,6.0,29.78,SW,222,0.0,4.0,55,0.00,,,0.00,weatherlink.com 1.10,2013-03-18 11:30:00,
2013-03-18 05:45:00,21.1,6.0,29.78,WSW,254,3.0,12.0,52,0.00,,,0.00,weatherlink.com 1.10,2013-03-18 11:45:00,
2013-03-18 06:02:00,21.8,7.0,29.78,WSW,248,0.0,9.0,52,0.00,,,0.00,weatherlink.com 1.10,2013-03-18 12:02:00,
2013-03-18 06:16:00,21.9,7.0,29.79,West,262,0.0,4.0,52,0.00,,,0.00,weatherlink.com 1.10,2013-03-18 12:16:00,
2013-03-18 06:31:00,21.8,7.0,29.80,WSW,250,0.0,4.0,54,0.00,,,0.00,weatherlink.com 1.10,2013-03-18 12:31:00,
2013-03-18 06:46:00,21.8,8.0,29.81,SSW,201,0.0,4.0,56,0.00,,,0.00,weatherlink.com 1.10,2013-03-18 12:46:00,
2013-03-18 07:01:00,21.7,8.0,29.82,WSW,243,0.0,1.0,57,0.00,,,0.00,weatherlink.com 1.10,2013-03-18 13:01:00,
2013-03-18 07:17:00,21.5,8.0,29.83,WSW,243,0.0,0.0,57,0.00,,,0.00,weatherlink.com 1.10,2013-03-18 13:17:00,
2013-03-18 07:31:00,21.3,10.0,29.84,WNW,298,0.0,3.0,62,0.00,,,0.00,weatherlink.com 1.10,2013-03-18 13:31:00,
2013-03-18 07:46:00,21.0,11.0,29.84,West,273,0.0,5.0,65,0.00,,,0.00,weatherlink.com 1.10,2013-03-18 13:46:00,
2013-03-18 08:02:00,21.0,11.0,29.85,WNW,296,0.0,0.0,66,0.00,,,0.00,weatherlink.com 1.10,2013-03-18 14:02:00,
2013-03-18 08:16:00,21.4,12.0,29.85,West,278,0.0,0.0,67,0.00,,,0.00,weatherlink.com 1.10,2013-03-18 14:16:00,
2013-03-18 08:31:00,21.9,12.0,29.86,WSW,252,0.0,3.0,65,0.00,,,0.00,weatherlink.com 1.10,2013-03-18 14:31:00,
2013-03-18 08:46:00,22.1,13.0,29.87,WSW,257,0.0,2.0,68,0.00,,,0.00,weatherlink.com 1.10,2013-03-18 14:46:00,
2013-03-18 09:01:00,22.2,13.0,29.87,WSW,257,0.0,2.0,68,0.00,,,0.00,weatherlink.com 1.10,2013-03-18 15:01:00,
2013-03-18 09:16:00,22.7,13.0,29.87,WSW,257,0.0,2.0,66,0.00,,,0.00,weatherlink.com 1.10,2013-03-18 15:16:00,
2013-03-18 09:46:00,24.3,13.0,29.88,WSW,238,0.0,7.0,63,0.00,,,0.00,weatherlink.com 1.10,2013-03-18 15:46:00,
2013-03-18 10:01:00,25.1,14.0,29.88,South,184,0.0,4.0,63,0.00,,,0.00,weatherlink.com 1.10,2013-03-18 16:01:00,
2013-03-18 10:16:00,25.9,13.0,29.88,WNW,301,0.0,6.0,59,0.00,,,0.00,weatherlink.com 1.10,2013-03-18 16:16:00,
2013-03-18 10:31:00,27.6,14.0,29.88,WSW,248,3.0,7.0,58,0.01,,,0.01,weatherlink.com 1.10,2013-03-18 16:31:00,
2013-03-18 10:46:00,28.1,13.0,29.88,NE,43,0.0,7.0,54,0.01,,,0.01,weatherlink.com 1.10,2013-03-18 16:46:00,
2013-03-18 11:02:00,29.0,15.0,29.88,WSW,248,0.0,12.0,55,0.02,,,0.02,weatherlink.com 1.10,2013-03-18 17:02:00,
2013-03-18 11:17:00,30.1,12.0,29.89,WNW,287,7.0,8.0,48,0.02,,,0.02,weatherlink.com 1.10,2013-03-18 17:17:00,
2013-03-18 11:32:00,29.5,14.0,29.89,West,269,9.0,14.0,53,0.01,,,0.02,weatherlink.com 1.10,2013-03-18 17:32:00,
2013-03-18 11:47:00,29.7,14.0,29.89,West,268,2.0,14.0,52,0.01,,,0.02,weatherlink.com 1.10,2013-03-18 17:47:00,
2013-03-18 12:02:00,29.8,14.0,29.90,SSW,207,4.0,15.0,52,0.00,,,0.02,weatherlink.com 1.10,2013-03-18 18:02:00,
2013-03-18 12:17:00,29.7,13.0,29.90,South,190,1.0,11.0,50,0.00,,,0.02,weatherlink.com 1.10,2013-03-18 18:17:00,
2013-03-18 12:32:00,29.6,15.0,29.91,West,266,3.0,12.0,54,0.00,,,0.02,weatherlink.com 1.10,2013-03-18 18:32:00,
2013-03-18 12:47:00,31.2,14.0,29.91,SW,221,0.0,8.0,50,0.00,,,0.02,weatherlink.com 1.10,2013-03-18 18:47:00,
2013-03-18 13:03:00,31.0,14.0,29.92,WSW,248,1.0,11.0,50,0.00,,,0.02,weatherlink.com 1.10,2013-03-18 19:03:00,
2013-03-18 13:17:00,29.8,14.0,29.92,South,186,0.0,11.0,52,0.00,,,0.02,weatherlink.com 1.10,2013-03-18 19:17:00,
2013-03-18 13:32:00,29.7,14.0,29.92,WSW,238,1.0,12.0,52,0.00,,,0.02,weatherlink.com 1.10,2013-03-18 19:32:00,
2013-03-18 13:47:00,28.8,12.0,29.92,West,263,1.0,13.0,50,0.00,,,0.02,weatherlink.com 1.10,2013-03-18 19:47:00,
2013-03-18 14:02:00,30.3,14.0,29.91,WSW,254,10.0,15.0,52,0.00,,,0.02,weatherlink.com 1.10,2013-03-18 20:02:00,
2013-03-18 14:17:00,31.8,14.0,29.90,SW,217,5.0,14.0,47,0.00,,,0.02,weatherlink.com 1.10,2013-03-18 20:17:00,
2013-03-18 14:32:00,32.8,14.0,29.90,South,169,5.0,11.0,47,0.00,,,0.02,weatherlink.com 1.10,2013-03-18 20:32:00,
2013-03-18 14:47:00,32.9,15.0,29.89,SW,231,5.0,9.0,48,0.00,,,0.02,weatherlink.com 1.10,2013-03-18 20:47:00,
2013-03-18 15:02:00,31.1,14.0,29.88,SW,235,4.0,13.0,50,0.00,,,0.02,weatherlink.com 1.10,2013-03-18 21:02:00,
2013-03-18 15:17:00,32.1,13.0,29.88,WSW,239,7.0,17.0,46,0.00,,,0.02,weatherlink.com 1.10,2013-03-18 21:17:00,
2013-03-18 15:32:00,32.1,13.0,29.88,SW,221,0.0,16.0,45,0.00,,,0.02,weatherlink.com 1.10,2013-03-18 21:32:00,
2013-03-18 15:47:00,32.4,11.0,29.88,WNW,289,8.0,16.0,41,0.00,,,0.02,weatherlink.com 1.10,2013-03-18 21:47:00,
2013-03-18 16:02:00,32.0,9.0,29.88,SW,230,4.0,16.0,39,0.00,,,0.02,weatherlink.com 1.10,2013-03-18 22:02:00,
2013-03-18 16:18:00,31.8,8.0,29.88,SW,216,9.0,16.0,36,0.00,,,0.02,weatherlink.com 1.10,2013-03-18 22:18:00,
2013-03-18 16:33:00,31.9,8.0,29.90,SW,235,2.0,14.0,37,0.00,,,0.02,weatherlink.com 1.10,2013-03-18 22:33:00,
2013-03-18 16:48:00,31.3,8.0,29.91,West,260,0.0,22.0,38,0.00,,,0.02,weatherlink.com 1.10,2013-03-18 22:48:00,
2013-03-18 17:05:00,31.4,7.0,29.91,WSW,256,5.0,16.0,36,0.00,,,0.02,weatherlink.com 1.10,2013-03-18 23:05:00,
2013-03-18 17:33:00,30.6,9.0,29.92,West,266,0.0,23.0,40,0.00,,,0.02,weatherlink.com 1.10,2013-03-18 23:33:00,
2013-03-18 17:48:00,30.7,9.0,29.93,SW,217,0.0,16.0,41,0.00,,,0.02,weatherlink.com 1.10,2013-03-18 23:48:00,
2013-03-18 18:03:00,30.3,9.0,29.93,WSW,249,4.0,11.0,41,0.00,,,0.02,weatherlink.com 1.10,2013-03-19 00:03:00,
2013-03-18 18:18:00,29.7,10.0,29.94,West,259,2.0,10.0,43,0.00,,,0.02,weatherlink.com 1.10,2013-03-19 00:18:00,
2013-03-18 18:33:00,29.0,10.0,29.94,WSW,244,0.0,7.0,45,0.00,,,0.02,weatherlink.com 1.10,2013-03-19 00:33:00,
2013-03-18 18:48:00,28.5,10.0,29.95,SW,218,2.0,7.0,46,0.00,,,0.02,weatherlink.com 1.10,2013-03-19 00:48:00,
2013-03-18 19:04:00,28.0,10.0,29.95,West,265,0.0,9.0,46,0.00,,,0.02,weatherlink.com 1.10,2013-03-19 01:04:00,
2013-03-18 19:18:00,27.7,9.0,29.96,SW,219,0.0,8.0,46,0.00,,,0.02,weatherlink.com 1.10,2013-03-19 01:18:00,
2013-03-18 19:33:00,27.6,10.0,29.96,WSW,243,1.0,8.0,47,0.00,,,0.02,weatherlink.com 1.10,2013-03-19 01:33:00,
2013-03-18 19:49:00,27.2,10.0,29.96,West,268,3.0,8.0,48,0.00,,,0.02,weatherlink.com 1.10,2013-03-19 01:49:00,
2013-03-18 20:04:00,27.3,9.0,29.96,WSW,248,0.0,9.0,47,0.00,,,0.02,weatherlink.com 1.10,2013-03-19 02:04:00,
2013-03-18 20:18:00,27.1,10.0,29.97,SW,227,0.0,5.0,48,0.00,,,0.02,weatherlink.com 1.10,2013-03-19 02:18:00,
2013-03-18 20:33:00,27.1,9.0,29.97,WSW,243,1.0,4.0,47,0.00,,,0.02,weatherlink.com 1.10,2013-03-19 02:33:00,
2013-03-18 20:49:00,27.1,9.0,29.97,WSW,257,0.0,5.0,46,0.00,,,0.02,weatherlink.com 1.10,2013-03-19 02:49:00,
2013-03-18 21:03:00,27.2,8.0,29.97,WSW,242,0.0,5.0,45,0.00,,,0.02,weatherlink.com 1.10,2013-03-19 03:03:00,
2013-03-18 21:19:00,27.5,8.0,29.98,SW,221,0.0,7.0,44,0.00,,,0.02,weatherlink.com 1.10,2013-03-19 03:19:00,
2013-03-18 21:34:00,27.8,8.0,29.98,SSW,211,0.0,6.0,43,0.00,,,0.02,weatherlink.com 1.10,2013-03-19 03:34:00,
2013-03-18 21:49:00,27.9,7.0,29.98,WSW,242,0.0,7.0,41,0.00,,,0.02,weatherlink.com 1.10,2013-03-19 03:49:00,
2013-03-18 22:04:00,27.8,7.0,29.98,SW,221,1.0,7.0,41,0.00,,,0.02,weatherlink.com 1.10,2013-03-19 04:04:00,
2013-03-18 22:18:00,28.1,7.0,29.98,WSW,244,0.0,7.0,40,0.00,,,0.02,weatherlink.com 1.10,2013-03-19 04:18:00,
2013-03-18 22:34:00,28.1,7.0,29.97,SSW,200,0.0,12.0,40,0.00,,,0.02,weatherlink.com 1.10,2013-03-19 04:34:00,
2013-03-18 22:48:00,28.4,6.0,29.97,West,259,2.0,10.0,39,0.00,,,0.02,weatherlink.com 1.10,2013-03-19 04:48:00,
2013-03-18 23:03:00,28.4,6.0,29.96,WSW,244,12.0,12.0,38,0.00,,,0.02,weatherlink.com 1.10,2013-03-19 05:03:00,
2013-03-18 23:18:00,28.4,7.0,29.97,South,190,0.0,5.0,40,0.00,,,0.02,weatherlink.com 1.10,2013-03-19 05:18:00,
2013-03-18 23:33:00,28.5,7.0,29.96,WSW,238,0.0,12.0,40,0.00,,,0.02,weatherlink.com 1.10,2013-03-19 05:33:00,
2013-03-18 23:48:00,28.6,6.0,29.96,West,265,3.0,7.0,39,0.00,,,0.02,weatherlink.com 1.10,2013-03-19 05:48:00,